#�ϑ�����,���ϕ���,���ϕ���,�ő啗��,�ő啗����������,�ő�u�ԕ���,�ő�u�ԕ�����������
#(�N����),(m/s)   ,(16����),(m/s)   ,(16����)        ,(m/s)       ,(16����)            
2012/1/24 0:01,0.6,12,0.6,12,1.6,12
2012/1/24 0:02,0.6,11,0.6,12,1,12
2012/1/24 0:03,0.6,11,0.6,12,0.5,10
2012/1/24 0:04,0.7,11,0.7,11,1.1,12
2012/1/24 0:05,0.8,11,0.8,11,1.1,12
2012/1/24 0:06,0.8,11,0.8,11,0.9,12
2012/1/24 0:07,0.7,12,0.8,11,0.6,10
2012/1/24 0:08,0.7,12,0.7,11,1,14
2012/1/24 0:09,0.6,12,0.7,11,1,14
2012/1/24 0:10,0.6,12,0.6,11,1,2
2012/1/24 0:11,0.5,12,0.6,11,1.3,7
2012/1/24 0:12,0.6,12,0.6,11,1.9,8
2012/1/24 0:13,0.6,11,0.6,11,1.3,7
2012/1/24 0:14,0.5,11,0.6,11,0.8,7
2012/1/24 0:15,0.5,9,0.5,11,1.1,8
2012/1/24 0:16,0.5,8,0.5,12,1.8,9
2012/1/24 0:17,0.5,8,0.5,12,1.5,9
2012/1/24 0:18,0.6,7,0.6,12,1,9
2012/1/24 0:19,0.6,7,0.6,12,1.4,8
2012/1/24 0:20,0.6,8,0.6,12,1,8
2012/1/24 0:21,0.6,8,0.6,12,0.6,8
2012/1/24 0:22,0.4,8,0.6,12,0.1,8
2012/1/24 0:23,0.4,8,0.4,11,0,9
2012/1/24 0:24,0.4,8,0.4,7,0.8,8
2012/1/24 0:25,0.4,8,0.4,7,0.6,8
2012/1/24 0:26,0.4,8,0.4,7,0.8,8
2012/1/24 0:27,0.3,8,0.3,7,0.3,16
2012/1/24 0:28,0.2,8,0.3,7,0.1,15
2012/1/24 0:29,0.2,9,0.2,8,0.1,16
2012/1/24 0:30,0.1,10,0.2,8,0.1,15
2012/1/24 0:31,0.1,14,0.1,8,0.1,16
2012/1/24 0:32,0.1,16,0.1,8,0.3,1
2012/1/24 0:33,0.2,16,0.2,8,1.1,16
2012/1/24 0:34,0.2,16,0.2,8,0.9,16
2012/1/24 0:35,0.2,16,0.2,8,0.8,16
2012/1/24 0:36,0.2,16,0.2,8,0.5,16
2012/1/24 0:37,0.2,16,0.2,8,0.6,4
2012/1/24 0:38,0.2,1,0.2,8,0.3,3
2012/1/24 0:39,0.2,1,0.2,9,0.5,14
2012/1/24 0:40,0.2,1,0.2,16,0.3,14
2012/1/24 0:41,0.2,1,0.2,16,0.3,14
2012/1/24 0:42,0.3,16,0.3,16,1.4,15
2012/1/24 0:43,0.4,16,0.4,16,1.5,16
2012/1/24 0:44,0.4,16,0.4,16,1.3,15
2012/1/24 0:45,0.5,16,0.5,16,1.4,15
2012/1/24 0:46,0.6,15,0.6,15,1.6,14
2012/1/24 0:47,0.7,15,0.7,15,1.5,14
2012/1/24 0:48,0.8,15,0.8,15,1.8,15
2012/1/24 0:49,0.9,15,0.9,15,1.5,16
2012/1/24 0:50,1,15,1,15,1.6,16
2012/1/24 0:51,1.1,15,1.1,15,1.6,16
2012/1/24 0:52,1.1,15,1.1,15,1.6,2
2012/1/24 0:53,1.1,16,1.1,15,1.1,1
2012/1/24 0:54,1,16,1.1,15,0.8,16
2012/1/24 0:55,1,16,1,15,0.8,15
2012/1/24 0:56,0.9,16,0.9,15,0.8,16
2012/1/24 0:57,0.8,16,0.9,15,0.6,13
2012/1/24 0:58,0.6,16,0.7,15,0.1,14
2012/1/24 0:59,0.5,15,0.6,15,0.1,13
2012/1/24 1:00,0.4,15,0.5,15,0.3,8
2012/1/24 1:01,0.3,15,0.4,15,0.4,12
2012/1/24 1:02,0.3,14,0.3,15,0.8,13
2012/1/24 1:03,0.2,14,0.3,16,0,14
2012/1/24 1:04,0.2,14,0.2,16,0,2
2012/1/24 1:05,0.1,14,0.2,16,0.1,2
2012/1/24 1:06,0.1,14,0.1,16,1,16
2012/1/24 1:07,0.1,15,0.1,16,1.4,1
2012/1/24 1:08,0.2,16,0.2,16,1,1
2012/1/24 1:09,0.2,1,0.2,15,0.8,1
2012/1/24 1:10,0.3,1,0.3,15,0.4,2
2012/1/24 1:11,0.3,2,0.3,15,0.8,6
2012/1/24 1:12,0.3,2,0.3,14,0.5,6
2012/1/24 1:13,0.3,3,0.3,1,0.5,5
2012/1/24 1:14,0.3,3,0.3,1,0,6
2012/1/24 1:15,0.3,3,0.3,1,0.1,14
2012/1/24 1:16,0.3,3,0.3,1,0,16
2012/1/24 1:17,0.2,3,0.3,1,0.6,15
2012/1/24 1:18,0.2,2,0.2,1,1.4,15
2012/1/24 1:19,0.3,2,0.3,1,1.8,15
2012/1/24 1:20,0.4,1,0.4,2,2,15
2012/1/24 1:21,0.5,16,0.5,1,1.4,14
2012/1/24 1:22,0.6,15,0.6,15,1.4,13
2012/1/24 1:23,0.7,14,0.7,15,1.8,12
2012/1/24 1:24,0.8,14,0.8,14,1.8,12
2012/1/24 1:25,1.1,14,1.1,14,3.7,10
2012/1/24 1:26,1.3,13,1.3,13,3.9,12
2012/1/24 1:27,1.5,13,1.5,13,3.1,11
2012/1/24 1:28,1.5,13,1.5,13,2,12
2012/1/24 1:29,1.5,13,1.5,13,2.2,15
2012/1/24 1:30,1.5,13,1.5,13,2,16
2012/1/24 1:31,1.6,13,1.6,13,1.9,16
2012/1/24 1:32,1.6,13,1.6,13,2,16
2012/1/24 1:33,1.6,13,1.6,13,1.9,15
2012/1/24 1:34,1.6,13,1.6,13,2.7,12
2012/1/24 1:35,1.5,13,1.6,13,2.4,10
2012/1/24 1:36,1.5,13,1.5,13,3,11
2012/1/24 1:37,1.6,13,1.6,13,4.7,13
2012/1/24 1:38,1.5,13,1.6,13,2,11
2012/1/24 1:39,1.6,13,1.6,13,3.3,11
2012/1/24 1:40,1.6,12,1.6,13,2.2,12
2012/1/24 1:41,1.6,12,1.6,13,3,11
2012/1/24 1:42,1.6,12,1.6,13,3.1,12
2012/1/24 1:43,1.7,11,1.7,11,2.2,13
2012/1/24 1:44,1.7,12,1.7,11,3.8,13
2012/1/24 1:45,1.8,12,1.8,12,4.5,14
2012/1/24 1:46,1.7,12,1.8,12,1.6,15
2012/1/24 1:47,1.6,12,1.7,12,3.1,13
2012/1/24 1:48,1.7,13,1.7,12,3.6,13
2012/1/24 1:49,1.7,13,1.8,12,2.6,13
2012/1/24 1:50,1.7,13,1.7,12,1.6,15
2012/1/24 1:51,1.7,13,1.7,12,2.6,12
2012/1/24 1:52,1.6,13,1.7,12,2.2,13
2012/1/24 1:53,1.6,13,1.6,12,2.2,12
2012/1/24 1:54,1.5,13,1.6,12,2.5,13
2012/1/24 1:55,1.5,13,1.5,12,2.7,13
2012/1/24 1:56,1.5,13,1.6,13,2.6,13
2012/1/24 1:57,1.5,13,1.6,13,2.7,14
2012/1/24 1:58,1.4,13,1.5,13,2.2,15
2012/1/24 1:59,1.3,13,1.4,13,1.5,6
2012/1/24 2:00,1.3,13,1.3,13,1,5
2012/1/24 2:01,1.2,13,1.3,13,1.5,5
2012/1/24 2:02,1.2,13,1.2,13,1.4,4
2012/1/24 2:03,1.1,14,1.2,13,1.3,4
2012/1/24 2:04,1.1,4,1.1,13,1.4,4
2012/1/24 2:05,1,5,1.1,13,1.3,5
2012/1/24 2:06,0.9,5,1,13,1,5
2012/1/24 2:07,0.8,5,0.9,13,0.4,6
2012/1/24 2:08,0.7,5,0.7,13,0.6,5
2012/1/24 2:09,0.6,5,0.7,13,0.6,5
2012/1/24 2:10,0.6,5,0.6,13,0.3,6
2012/1/24 2:11,0.5,5,0.6,13,0.4,4
2012/1/24 2:12,0.4,5,0.5,13,0.9,4
2012/1/24 2:13,0.4,5,0.4,16,0.1,4
2012/1/24 2:14,0.3,5,0.4,4,0.5,16
2012/1/24 2:15,0.2,4,0.3,5,0.6,2
2012/1/24 2:16,0.2,4,0.2,5,0.6,3
2012/1/24 2:17,0.2,3,0.2,5,0.8,3
2012/1/24 2:18,0.2,3,0.2,5,1,2
2012/1/24 2:19,0.3,2,0.3,5,1.6,1
2012/1/24 2:20,0.5,2,0.5,5,2,1
2012/1/24 2:21,0.6,2,0.6,2,2,16
2012/1/24 2:22,0.6,1,0.6,2,1.4,16
2012/1/24 2:23,0.7,1,0.7,1,1.3,1
2012/1/24 2:24,0.8,1,0.8,1,1.3,1
2012/1/24 2:25,0.8,1,0.8,1,1,2
2012/1/24 2:26,0.8,1,0.8,1,0.9,3
2012/1/24 2:27,0.8,2,0.8,1,0.5,6
2012/1/24 2:28,0.7,2,0.8,1,0.4,15
2012/1/24 2:29,0.6,2,0.7,1,0.3,15
2012/1/24 2:30,0.5,2,0.6,1,0.5,1
2012/1/24 2:31,0.4,2,0.5,1,0.5,1
2012/1/24 2:32,0.4,2,0.4,1,1,1
2012/1/24 2:33,0.4,2,0.4,1,1.1,1
2012/1/24 2:34,0.4,2,0.4,1,1.4,2
2012/1/24 2:35,0.4,2,0.4,1,0.8,16
2012/1/24 2:36,0.4,1,0.4,1,1.5,1
2012/1/24 2:37,0.5,1,0.5,2,1.5,1
2012/1/24 2:38,0.7,1,0.7,2,1.9,1
2012/1/24 2:39,0.8,1,0.8,1,2,1
2012/1/24 2:40,0.9,1,0.9,1,1.9,16
2012/1/24 2:41,1,1,1,1,1.9,16
2012/1/24 2:42,1,1,1,1,1.8,16
2012/1/24 2:43,1,16,1,1,1.3,16
2012/1/24 2:44,1,16,1,1,1,15
2012/1/24 2:45,1,16,1,1,0.6,1
2012/1/24 2:46,1,16,1,1,1.1,15
2012/1/24 2:47,0.9,16,1,1,1,15
2012/1/24 2:48,0.8,16,0.9,1,1.4,16
2012/1/24 2:49,0.7,15,0.8,1,0.8,16
2012/1/24 2:50,0.6,15,0.7,1,0.8,16
2012/1/24 2:51,0.6,15,0.6,1,0.9,15
2012/1/24 2:52,0.6,15,0.6,16,0.9,15
2012/1/24 2:53,0.5,15,0.5,16,0.5,15
2012/1/24 2:54,0.4,15,0.5,16,0.1,14
2012/1/24 2:55,0.4,15,0.4,16,0,14
2012/1/24 2:56,0.3,15,0.4,16,0,14
2012/1/24 2:57,0.3,15,0.3,16,0,16
2012/1/24 2:58,0.2,15,0.3,16,0,14
2012/1/24 2:59,0.2,15,0.2,15,0,14
2012/1/24 3:00,0.2,14,0.2,15,0.6,14
2012/1/24 3:01,0.2,15,0.2,15,0.5,15
2012/1/24 3:02,0.1,15,0.1,15,0.1,1
2012/1/24 3:03,0.1,15,0.1,15,0,1
2012/1/24 3:04,0.1,15,0.1,15,0.4,1
2012/1/24 3:05,0.1,16,0.1,15,0.8,2
2012/1/24 3:06,0.2,16,0.2,15,1,2
2012/1/24 3:07,0.3,16,0.3,15,1.4,1
2012/1/24 3:08,0.4,1,0.4,1,1.1,16
2012/1/24 3:09,0.5,1,0.5,1,1.3,16
2012/1/24 3:10,0.5,1,0.5,1,1,1
2012/1/24 3:11,0.4,1,0.5,1,0.1,1
2012/1/24 3:12,0.4,1,0.4,1,0.3,1
2012/1/24 3:13,0.5,1,0.5,1,0.6,1
2012/1/24 3:14,0.5,1,0.5,1,1.1,1
2012/1/24 3:15,0.6,1,0.6,1,1,1
2012/1/24 3:16,0.5,1,0.6,1,0.9,1
2012/1/24 3:17,0.5,1,0.5,1,0.9,1
2012/1/24 3:18,0.5,1,0.5,1,1.5,1
2012/1/24 3:19,0.6,1,0.6,1,1.4,1
2012/1/24 3:20,0.6,1,0.6,1,1.5,1
2012/1/24 3:21,0.7,1,0.7,1,1.3,1
2012/1/24 3:22,0.8,1,0.8,1,1,2
2012/1/24 3:23,0.8,1,0.8,1,0.8,2
2012/1/24 3:24,0.7,1,0.8,1,0.6,2
2012/1/24 3:25,0.7,2,0.7,1,0.1,6
2012/1/24 3:26,0.7,2,0.7,1,0,8
2012/1/24 3:27,0.6,1,0.6,1,0.4,10
2012/1/24 3:28,0.5,1,0.6,1,1,10
2012/1/24 3:29,0.5,16,0.5,1,1.1,10
2012/1/24 3:30,0.4,13,0.5,1,0.8,11
2012/1/24 3:31,0.3,11,0.4,1,0.8,11
2012/1/24 3:32,0.3,10,0.3,1,0.8,10
2012/1/24 3:33,0.2,10,0.3,1,0.3,15
2012/1/24 3:34,0.2,10,0.2,1,0.3,14
2012/1/24 3:35,0.3,11,0.3,2,1.1,11
2012/1/24 3:36,0.4,11,0.4,2,1.1,9
2012/1/24 3:37,0.5,11,0.5,1,2.2,11
2012/1/24 3:38,0.5,11,0.5,1,2.2,10
2012/1/24 3:39,0.5,11,0.5,16,0.5,11
2012/1/24 3:40,0.4,11,0.5,11,0.5,13
2012/1/24 3:41,0.4,11,0.4,11,0.6,12
2012/1/24 3:42,0.5,12,0.5,11,1.5,12
2012/1/24 3:43,0.6,12,0.6,12,1.6,12
2012/1/24 3:44,0.7,11,0.7,11,1.4,10
2012/1/24 3:45,0.6,11,0.7,11,1,10
2012/1/24 3:46,0.6,11,0.6,11,1.3,12
2012/1/24 3:47,0.6,12,0.6,11,1.1,11
2012/1/24 3:48,0.6,12,0.6,11,1.3,11
2012/1/24 3:49,0.6,11,0.6,11,0.9,10
2012/1/24 3:50,0.6,11,0.6,11,0.1,7
2012/1/24 3:51,0.6,11,0.6,11,0.5,8
2012/1/24 3:52,0.6,10,0.6,11,0.9,9
2012/1/24 3:53,0.5,10,0.6,11,0.1,13
2012/1/24 3:54,0.4,10,0.5,11,0.1,13
2012/1/24 3:55,0.3,10,0.4,11,0.1,12
2012/1/24 3:56,0.3,10,0.3,11,0.4,10
2012/1/24 3:57,0.2,10,0.3,12,0.8,8
2012/1/24 3:58,0.2,10,0.2,12,2.1,13
2012/1/24 3:59,0.2,10,0.2,11,1.8,12
2012/1/24 4:00,0.3,11,0.3,11,1,15
2012/1/24 4:01,0.3,11,0.3,11,1.4,9
2012/1/24 4:02,0.4,11,0.4,10,1.8,9
2012/1/24 4:03,0.5,11,0.5,10,2.9,10
2012/1/24 4:04,0.7,11,0.7,11,3.1,10
2012/1/24 4:05,0.9,10,0.9,10,3.9,11
2012/1/24 4:06,1.1,10,1.1,11,3.5,10
2012/1/24 4:07,1.4,10,1.4,10,3.7,10
2012/1/24 4:08,1.5,10,1.5,10,2.6,10
2012/1/24 4:09,1.5,10,1.5,10,3,10
2012/1/24 4:10,1.7,10,1.7,10,2,11
2012/1/24 4:11,1.6,10,1.7,10,1.6,10
2012/1/24 4:12,1.6,11,1.7,10,2.1,10
2012/1/24 4:13,1.6,11,1.6,10,2.4,10
2012/1/24 4:14,1.7,11,1.7,10,2.7,9
2012/1/24 4:15,1.5,11,1.6,10,2.2,10
2012/1/24 4:16,1.5,11,1.5,10,2.9,11
2012/1/24 4:17,1.4,11,1.5,10,2.9,10
2012/1/24 4:18,1.4,10,1.4,10,2.1,10
2012/1/24 4:19,1.4,11,1.4,10,2,10
2012/1/24 4:20,1.3,10,1.4,10,1.4,9
2012/1/24 4:21,1.3,10,1.3,10,1.5,8
2012/1/24 4:22,1.4,10,1.4,11,2.6,10
2012/1/24 4:23,1.4,10,1.4,11,2.6,9
2012/1/24 4:24,1.3,10,1.4,11,2.2,9
2012/1/24 4:25,1.2,10,1.3,11,1.9,9
2012/1/24 4:26,1.1,10,1.2,11,1.8,11
2012/1/24 4:27,1.1,10,1.1,11,2,11
2012/1/24 4:28,1,10,1,10,1.9,9
2012/1/24 4:29,1,10,1,11,2.2,10
2012/1/24 4:30,1.1,10,1.1,10,1.9,8
2012/1/24 4:31,1.1,10,1.1,10,2.4,9
2012/1/24 4:32,1.1,10,1.1,10,2.7,9
2012/1/24 4:33,1.1,10,1.1,10,2.6,9
2012/1/24 4:34,1.1,10,1.1,10,2.2,9
2012/1/24 4:35,1.2,10,1.2,10,2.6,9
2012/1/24 4:36,1.3,10,1.3,10,3.1,10
2012/1/24 4:37,1.3,9,1.3,10,3,9
2012/1/24 4:38,1.4,10,1.4,10,2.1,9
2012/1/24 4:39,1.3,9,1.4,10,1.8,9
2012/1/24 4:40,1.3,9,1.3,10,1.5,9
2012/1/24 4:41,1.2,9,1.3,10,1.6,9
2012/1/24 4:42,1.1,9,1.2,10,1.6,9
2012/1/24 4:43,1.1,9,1.1,10,1.4,10
2012/1/24 4:44,1.1,9,1.1,10,1.5,9
2012/1/24 4:45,1,10,1.1,10,2.4,10
2012/1/24 4:46,0.9,10,1,10,1.3,10
2012/1/24 4:47,0.8,10,0.9,10,2.2,9
2012/1/24 4:48,0.8,10,0.8,10,2,10
2012/1/24 4:49,0.8,10,0.8,9,1.3,8
2012/1/24 4:50,0.8,10,0.8,9,0.8,10
2012/1/24 4:51,0.7,10,0.8,9,0.4,11
2012/1/24 4:52,0.7,10,0.7,9,0.4,10
2012/1/24 4:53,0.6,10,0.7,9,0.1,7
2012/1/24 4:54,0.5,10,0.6,9,1,9
2012/1/24 4:55,0.4,10,0.5,10,0.8,8
2012/1/24 4:56,0.4,10,0.4,10,0.5,12
2012/1/24 4:57,0.3,10,0.4,10,0.1,13
2012/1/24 4:58,0.2,10,0.3,10,0.6,6
2012/1/24 4:59,0.2,9,0.2,10,0.8,9
2012/1/24 5:00,0.2,9,0.2,10,1.5,7
2012/1/24 5:01,0.3,9,0.3,10,1,8
2012/1/24 5:02,0.3,8,0.3,10,0.3,7
2012/1/24 5:03,0.3,8,0.3,10,0.5,6
2012/1/24 5:04,0.3,8,0.3,10,0.6,5
2012/1/24 5:05,0.4,7,0.4,10,1.4,7
2012/1/24 5:06,0.4,7,0.4,10,1.4,7
2012/1/24 5:07,0.5,7,0.5,7,1.4,8
2012/1/24 5:08,0.5,7,0.5,7,0.6,7
2012/1/24 5:09,0.5,7,0.5,7,0.8,7
2012/1/24 5:10,0.5,6,0.5,7,0.6,6
2012/1/24 5:11,0.4,6,0.5,7,0,5
2012/1/24 5:12,0.5,6,0.5,7,1.3,6
2012/1/24 5:13,0.5,6,0.5,7,1.1,7
2012/1/24 5:14,0.5,6,0.5,7,0.3,3
2012/1/24 5:15,0.4,6,0.5,7,0.6,6
2012/1/24 5:16,0.4,6,0.4,7,0.3,8
2012/1/24 5:17,0.4,6,0.4,7,1.4,9
2012/1/24 5:18,0.4,7,0.4,7,1.3,7
2012/1/24 5:19,0.5,7,0.5,7,1.4,7
2012/1/24 5:20,0.5,7,0.5,6,1,6
2012/1/24 5:21,0.5,7,0.5,6,1,8
2012/1/24 5:22,0.4,7,0.5,6,0.3,9
2012/1/24 5:23,0.4,7,0.4,6,0.1,14
2012/1/24 5:24,0.4,7,0.4,6,0.6,5
2012/1/24 5:25,0.5,7,0.5,7,1,3
2012/1/24 5:26,0.5,6,0.5,7,1,3
2012/1/24 5:27,0.5,5,0.5,7,0.6,2
2012/1/24 5:28,0.4,5,0.5,7,1.1,5
2012/1/24 9:19,0,11,0,12,0.1,11
2012/1/24 9:20,0,11,0,12,0,10
2012/1/24 9:21,0,11,0,12,0,11
2012/1/24 9:22,0,11,0,12,0,14
2012/1/24 9:23,0,11,0,12,0,11
2012/1/24 9:24,0,11,0,12,0.1,11
2012/1/24 9:25,0,11,0,12,0.1,10
2012/1/24 9:26,0,10,0,12,0,8
2012/1/24 9:27,0,10,0,12,0.1,4
2012/1/24 9:28,0,10,0,12,0.1,1
2012/1/24 9:29,0,10,0,11,0,4
2012/1/24 9:30,0,9,0,11,0,8
2012/1/24 9:31,0,9,0,11,0,9
2012/1/24 9:32,0,8,0,11,0.1,4
2012/1/24 9:33,0,8,0,11,0.1,5
2012/1/24 9:34,0,7,0,11,0,6
2012/1/24 9:35,0,7,0,11,0.1,14
2012/1/24 9:36,0,7,0,10,0.1,4
2012/1/24 9:37,0,9,0,10,0,11
2012/1/24 9:38,0.1,11,0.1,11,1.4,15
2012/1/24 9:39,0.2,13,0.2,13,1.1,14
2012/1/24 9:40,0.2,15,0.2,13,0.9,16
2012/1/24 9:41,0.2,16,0.2,13,0.1,1
2012/1/24 9:42,0.2,15,0.2,13,0.1,16
2012/1/24 9:43,0.2,15,0.2,13,0,16
2012/1/24 9:44,0.2,15,0.2,13,0.1,16
2012/1/24 9:45,0.2,15,0.2,13,1.3,13
2012/1/24 9:46,0.3,15,0.3,15,1.9,11
2012/1/24 9:47,0.3,15,0.3,15,0.8,13
2012/1/24 9:48,0.3,15,0.3,15,0,12
2012/1/24 9:49,0.3,15,0.3,15,1.5,10
2012/1/24 9:50,0.3,14,0.3,15,1.8,12
2012/1/24 9:51,0.5,14,0.5,14,2,10
2012/1/24 9:52,0.7,13,0.7,13,4.3,10
2012/1/24 9:53,1,12,1,12,5.4,10
2012/1/24 9:54,1.3,12,1.3,12,4.3,10
2012/1/24 9:55,1.4,11,1.4,12,2.9,12
2012/1/24 9:56,1.4,11,1.4,12,1.5,11
2012/1/24 9:57,1.5,11,1.5,11,2.7,13
2012/1/24 9:58,1.7,11,1.7,11,2.5,13
2012/1/24 9:59,1.7,11,1.7,11,2.2,15
2012/1/24 10:00,1.6,11,1.7,11,1.3,14
2012/1/24 10:01,1.6,12,1.6,11,2.4,13
2012/1/24 10:02,1.4,12,1.6,11,1.5,12
2012/1/24 10:03,1.2,12,1.4,11,2.4,11
2012/1/24 10:04,1.1,13,1.2,11,3.1,13
2012/1/24 10:05,1.1,13,1.2,11,3.2,11
2012/1/24 10:06,1.2,13,1.2,11,3,12
2012/1/24 10:07,1.2,13,1.2,11,2.1,13
2012/1/24 10:08,1.2,12,1.2,11,4.2,10
2012/1/24 10:09,1.1,12,1.1,11,1.1,12
2012/1/24 10:10,1.2,12,1.2,12,3.3,13
2012/1/24 10:11,1.2,12,1.2,12,3,9
2012/1/24 10:12,1.3,12,1.3,12,2.9,11
2012/1/24 10:13,1.3,12,1.4,12,3.1,8
2012/1/24 10:14,1.3,12,1.3,12,2.7,11
2012/1/24 10:15,1.2,12,1.3,12,2.9,7
2012/1/24 10:16,1.2,12,1.2,12,3.1,8
2012/1/24 10:17,1.1,11,1.2,12,1.1,7
2012/1/24 10:18,1.1,11,1.1,12,2.2,10
2012/1/24 10:19,1.1,11,1.1,12,1.6,10
2012/1/24 10:20,1.2,10,1.2,12,3.3,10
2012/1/24 10:21,1.2,10,1.2,12,2,10
2012/1/24 10:22,1.1,10,1.2,12,3.2,10
2012/1/24 10:23,1.3,10,1.3,12,3.5,8
2012/1/24 10:24,1.3,9,1.4,9,4.2,9
2012/1/24 10:25,1.4,9,1.4,9,3.6,8
2012/1/24 10:26,1.4,9,1.4,9,2.9,9
2012/1/24 10:27,1.5,9,1.5,9,2.9,9
2012/1/24 10:28,1.6,9,1.6,9,3,8
2012/1/24 10:29,1.6,9,1.6,9,2.7,8
2012/1/24 10:30,1.7,9,1.7,9,4.3,8
2012/1/24 10:31,1.7,9,1.7,9,2.4,9
2012/1/24 10:32,1.8,9,1.8,9,3.7,9
2012/1/24 10:33,1.8,9,1.8,9,3.9,8
2012/1/24 10:34,1.7,9,1.8,9,3.6,10
2012/1/24 10:35,2,9,2,9,6.4,10
2012/1/24 10:36,2.1,9,2.1,9,3.7,9
2012/1/24 10:37,2.1,9,2.1,9,4.8,10
2012/1/24 10:38,2.2,9,2.2,9,4.9,10
2012/1/24 10:39,2.2,10,2.2,9,5.1,9
2012/1/24 10:40,2.1,10,2.2,9,2.6,8
2012/1/24 10:41,2.2,10,2.2,9,4.3,13
2012/1/24 10:42,2.2,10,2.2,9,3.5,9
2012/1/24 10:43,2.3,10,2.3,10,6,11
2012/1/24 10:44,2.4,10,2.4,10,4.8,9
2012/1/24 10:45,2.2,10,2.4,10,3.6,11
2012/1/24 10:46,2.2,11,2.3,10,4.5,10
2012/1/24 10:47,2.1,11,2.2,10,3.7,12
2012/1/24 10:48,2.3,11,2.3,10,7.7,11
2012/1/24 10:49,2.5,11,2.5,11,6.5,10
2012/1/24 10:50,2.7,11,2.7,11,4.5,10
2012/1/24 10:51,2.6,11,2.7,11,3.6,9
2012/1/24 10:52,2.6,11,2.6,11,3.7,15
2012/1/24 10:53,2.4,11,2.6,11,3.8,9
2012/1/24 10:54,2.5,11,2.5,11,5,11
2012/1/24 10:55,2.5,11,2.5,11,4.4,12
2012/1/24 10:56,2.6,11,2.6,11,6.4,11
2012/1/24 10:57,2.8,11,2.8,11,5.2,9
2012/1/24 10:58,2.8,11,2.8,11,7.7,11
2012/1/24 10:59,2.6,11,2.8,11,4.7,11
2012/1/24 11:00,2.6,11,2.6,11,7.2,9
2012/1/24 11:01,2.7,11,2.7,11,5.4,9
2012/1/24 11:02,2.8,11,2.8,11,7.1,9
2012/1/24 11:03,2.9,11,2.9,11,6.2,10
2012/1/24 11:04,3.1,11,3.1,11,7.4,12
2012/1/24 11:05,3.2,11,3.2,11,5.2,13
2012/1/24 11:06,3,11,3.2,11,3.7,14
2012/1/24 11:07,2.9,11,3,11,4.3,10
2012/1/24 11:08,2.8,11,2.9,11,4.2,10
2012/1/24 11:09,2.8,11,2.9,11,4.4,12
2012/1/24 11:10,2.8,11,2.8,11,7.1,11
2012/1/24 11:11,2.7,11,2.8,11,4.9,9
2012/1/24 11:12,2.8,12,2.8,11,7,13
2012/1/24 11:13,2.6,11,2.8,11,4.7,10
2012/1/24 11:14,2.5,11,2.6,11,6.7,12
2012/1/24 11:15,2.6,11,2.6,11,7.9,10
2012/1/24 11:16,2.7,11,2.7,11,5.1,10
2012/1/24 11:17,2.8,11,2.8,11,7.8,10
2012/1/24 11:18,2.9,11,2.9,11,5.4,10
2012/1/24 11:19,2.9,11,2.9,11,4.9,11
2012/1/24 11:20,3,11,3,11,7,8
2012/1/24 11:21,3.3,11,3.3,11,7.8,9
2012/1/24 11:22,3.3,10,3.3,11,7.4,10
2012/1/24 11:23,3.6,10,3.6,10,8.2,10
2012/1/24 11:24,3.6,10,3.7,10,7.8,9
2012/1/24 11:25,3.4,10,3.6,10,3.8,10
2012/1/24 11:26,3.4,10,3.5,10,5.4,10
2012/1/24 11:27,3.3,11,3.4,10,4.8,12
2012/1/24 11:28,3.4,11,3.4,10,5.2,13
2012/1/24 11:29,3.4,11,3.4,10,4.2,13
2012/1/24 11:30,3.1,11,3.3,10,3.3,12
2012/1/24 11:31,3,11,3.1,10,3.5,15
2012/1/24 11:32,2.8,12,3,10,4.7,13
2012/1/24 11:33,2.5,12,2.7,10,2.9,12
2012/1/24 11:34,2.4,12,2.5,10,2.5,1
2012/1/24 11:35,2.4,12,2.4,10,4.4,12
2012/1/24 11:36,2.3,13,2.4,10,3.1,13
2012/1/24 11:37,2.2,13,2.3,11,3.1,14
2012/1/24 11:38,2,13,2.2,11,3.6,14
2012/1/24 11:39,1.9,13,2,11,3.8,13
2012/1/24 11:40,2,13,2,11,3.5,12
2012/1/24 11:41,2,13,2,11,4.1,2
2012/1/24 11:42,1.9,13,2,12,3.6,14
2012/1/24 11:43,1.9,13,1.9,12,3.8,12
2012/1/24 11:44,1.9,13,1.9,12,3.6,12
2012/1/24 11:45,1.8,13,1.9,12,2.2,10
2012/1/24 11:46,2,13,2,13,6.4,12
2012/1/24 11:47,2.2,13,2.2,13,6,11
2012/1/24 11:48,2.4,13,2.4,13,6,15
2012/1/24 11:49,2.6,13,2.6,13,7.1,12
2012/1/24 11:50,3,13,3,13,10,15
2012/1/24 11:51,3.2,13,3.2,13,8.1,13
2012/1/24 11:52,3.5,13,3.5,13,7.1,13
2012/1/24 11:53,3.7,13,3.7,13,5.5,12
2012/1/24 11:54,3.8,13,3.8,13,5.6,13
2012/1/24 11:55,4,13,4,13,6.7,12
2012/1/24 11:56,4,13,4.1,13,7.1,12
2012/1/24 11:57,4.2,13,4.2,13,7.5,14
2012/1/24 11:58,4.3,13,4.3,13,8.1,14
2012/1/24 11:59,4.2,13,4.3,13,5.8,13
2012/1/24 12:00,3.8,12,4.1,13,3.7,12
2012/1/24 12:01,3.5,12,3.8,13,3.9,13
2012/1/24 12:02,3.2,12,3.5,13,3.1,14
2012/1/24 12:03,3,12,3.2,13,2.5,12
2012/1/24 12:04,2.9,12,3,13,3.7,13
2012/1/24 12:05,2.9,12,2.9,13,5.1,13
2012/1/24 12:06,2.8,12,2.8,13,5.2,13
2012/1/24 12:07,2.4,12,2.7,13,2.1,10
2012/1/24 12:08,2.1,12,2.4,13,3.3,9
2012/1/24 12:09,2,12,2.1,12,4.5,12
2012/1/24 12:10,2,12,2,12,4.9,11
2012/1/24 12:11,2,12,2,12,3,14
2012/1/24 12:12,2,12,2,12,3.1,11
2012/1/24 12:13,2.2,12,2.2,12,5.8,9
2012/1/24 12:14,2.3,12,2.3,12,5.8,10
2012/1/24 12:15,2.3,11,2.3,12,5.6,11
2012/1/24 12:16,2.4,11,2.4,12,6.5,9
2012/1/24 12:17,2.5,11,2.5,11,5.2,11
2012/1/24 12:18,2.5,11,2.5,11,3.8,11
2012/1/24 12:19,2.6,11,2.6,11,5.2,12
2012/1/24 12:20,2.5,11,2.6,11,4.2,9
2012/1/24 12:21,2.7,10,2.7,10,5.8,9
2012/1/24 12:22,2.7,10,2.7,10,6.1,10
2012/1/24 12:23,2.7,10,2.7,10,4.5,10
2012/1/24 12:24,2.6,10,2.6,10,5.1,12
2012/1/24 12:25,2.6,10,2.6,10,6.3,10
2012/1/24 12:26,2.5,11,2.6,10,5.7,10
2012/1/24 12:27,2.5,10,2.5,10,4.8,10
2012/1/24 12:28,2.5,10,2.5,10,4.1,8
2012/1/24 12:29,2.6,10,2.6,10,6.8,10
2012/1/24 12:30,2.8,10,2.8,10,6.7,10
2012/1/24 12:31,2.9,10,2.9,10,7,9
2012/1/24 12:32,3.1,10,3.1,10,6.3,10
2012/1/24 12:33,3.2,10,3.2,10,6.3,10
2012/1/24 12:34,3.4,10,3.5,10,7.2,10
2012/1/24 12:35,3.4,10,3.4,10,4.4,10
2012/1/24 12:36,3.5,10,3.5,10,5.8,9
2012/1/24 12:37,3.6,10,3.6,10,5.1,10
2012/1/24 12:38,3.7,10,3.7,10,8.3,11
2012/1/24 12:39,3.6,10,3.8,10,7.1,10
2012/1/24 12:40,3.6,10,3.7,10,5.5,10
2012/1/24 12:41,3.5,10,3.6,10,6.4,9
2012/1/24 12:42,3.3,10,3.5,10,4.5,10
2012/1/24 12:43,3.4,10,3.4,10,5.6,11
2012/1/24 12:44,3.3,10,3.3,10,6.5,9
2012/1/24 12:45,3.4,10,3.4,10,7.2,9
2012/1/24 12:46,3.3,10,3.5,10,7.8,10
2012/1/24 12:47,3.4,10,3.4,10,6,11
2012/1/24 12:48,3.3,10,3.5,10,5.1,11
2012/1/24 12:49,3.1,11,3.3,10,2.5,12
2012/1/24 12:50,2.9,11,3.1,10,2,10
2012/1/24 12:51,2.6,11,2.9,10,2.7,8
2012/1/24 12:52,2.6,11,2.6,10,5.6,11
2012/1/24 12:53,2.6,11,2.7,10,6.9,13
2012/1/24 12:54,2.6,12,2.6,10,5.8,11
2012/1/24 12:55,2.2,12,2.5,10,2,14
2012/1/24 12:56,2,12,2.1,10,3.5,2
2012/1/24 12:57,2,12,2.1,10,5.1,13
2012/1/24 12:58,1.9,13,2,10,3.8,15
2012/1/24 12:59,1.9,13,1.9,11,4.5,16
2012/1/24 13:00,2,13,2,11,5.1,16
2012/1/24 13:01,2.2,14,2.2,11,3.8,15
2012/1/24 13:02,2.3,14,2.3,11,6.7,15
2012/1/24 13:03,2.5,15,2.5,11,6.8,15
2012/1/24 13:04,2.5,15,2.5,12,5.1,15
2012/1/24 13:05,2.6,16,2.6,16,3.9,16
2012/1/24 13:06,2.6,15,2.6,16,3.7,16
2012/1/24 13:07,2.7,16,2.7,16,5.4,1
2012/1/24 13:08,2.7,16,2.7,16,3,16
2012/1/24 13:09,2.7,16,2.7,16,2,15
2012/1/24 13:10,2.5,16,2.7,16,2.1,16
2012/1/24 13:11,2.4,16,2.5,16,3.2,1
2012/1/24 13:12,2.2,16,2.4,16,1.8,14
2012/1/24 13:13,1.8,16,2.2,16,2.2,15
2012/1/24 13:14,1.5,16,1.7,16,1.4,14
2012/1/24 13:15,1.4,16,1.5,16,1.5,16
2012/1/24 13:16,1.4,16,1.4,16,3.3,12
2012/1/24 13:17,1.1,15,1.4,16,3.2,12
2012/1/24 13:18,1,15,1.1,16,0.9,4
2012/1/24 13:19,1,15,1,16,1.4,16
2012/1/24 13:20,0.9,15,1,16,1.5,15
2012/1/24 13:21,0.9,15,0.9,16,2,16
2012/1/24 13:22,0.9,15,0.9,16,1.6,16
2012/1/24 13:23,1,15,1,16,3.9,16
2012/1/24 13:24,1.1,15,1.1,16,4.3,1
2012/1/24 13:25,1.3,15,1.3,16,3.9,16
2012/1/24 13:26,1.5,16,1.5,16,4.7,1
2012/1/24 13:27,1.6,16,1.6,16,3.2,14
2012/1/24 13:28,1.7,16,1.7,16,3,16
2012/1/24 13:29,1.8,16,1.8,16,4.1,14
2012/1/24 13:30,2,16,2,16,3.9,15
2012/1/24 13:31,1.9,16,1.9,16,1.4,16
2012/1/24 13:32,2,15,2,16,3.2,12
2012/1/24 13:33,2,15,2,16,2.6,10
2012/1/24 13:34,2,14,2,16,3.8,13
2012/1/24 13:35,1.8,14,2,16,2,12
2012/1/24 13:36,1.6,14,1.8,16,2.2,14
2012/1/24 13:37,1.6,14,1.6,16,2.6,15
2012/1/24 13:38,1.6,14,1.6,16,3.8,16
2012/1/24 13:39,1.6,14,1.6,16,2.9,16
2012/1/24 13:40,1.6,14,1.6,15,3,16
2012/1/24 13:41,1.6,15,1.6,15,1.6,2
2012/1/24 13:42,1.4,15,1.5,15,2.2,16
2012/1/24 13:43,1.4,15,1.4,15,3.2,12
2012/1/24 13:44,1.3,15,1.4,14,2.1,16
2012/1/24 13:45,1.4,16,1.4,14,3.3,15
2012/1/24 13:46,1.5,16,1.5,14,2.4,16
2012/1/24 13:47,1.6,16,1.6,14,4.1,15
2012/1/24 13:48,1.7,15,1.7,15,4.4,14
2012/1/24 13:49,1.8,15,1.8,15,4.7,14
2012/1/24 13:50,1.9,15,1.9,15,6,15
2012/1/24 13:51,2.2,15,2.2,15,6.7,14
2012/1/24 13:52,2.4,15,2.4,15,4.5,15
2012/1/24 13:53,2.5,15,2.5,15,4.7,14
2012/1/24 13:54,2.8,15,2.8,15,6,15
2012/1/24 13:55,3,15,3,15,7.9,14
2012/1/24 13:56,3.2,15,3.2,15,7,15
2012/1/24 13:57,3.2,15,3.3,15,5.5,14
2012/1/24 13:58,3.2,15,3.2,15,5.1,1
2012/1/24 13:59,3.2,15,3.2,15,4.9,16
2012/1/24 14:00,3.3,15,3.3,15,6.9,15
2012/1/24 14:01,3.2,15,3.2,15,5,15
2012/1/24 14:02,3.2,15,3.2,15,4.8,12
2012/1/24 14:03,3.4,14,3.4,14,6.5,13
2012/1/24 14:04,3.3,14,3.4,14,5.8,13
2012/1/24 14:05,3,14,3.3,14,2.5,11
2012/1/24 14:06,2.8,14,3,14,2.9,1
2012/1/24 14:07,2.7,14,2.8,14,3.7,16
2012/1/24 14:08,2.7,14,2.7,14,5.1,15
2012/1/24 14:09,2.7,14,2.7,14,7,15
2012/1/24 14:10,2.6,14,2.8,14,6.4,16
2012/1/24 14:11,2.5,14,2.6,14,3.5,10
2012/1/24 14:12,2.4,14,2.5,14,3.1,11
2012/1/24 14:13,2,14,2.4,14,3.1,13
2012/1/24 14:14,2,14,2,14,3.7,11
2012/1/24 14:15,2.1,14,2.1,14,6.5,10
2012/1/24 14:16,2.2,13,2.2,14,4.4,11
2012/1/24 14:17,2.3,12,2.3,14,6.2,9
2012/1/24 14:18,2.3,12,2.3,14,6.4,11
2012/1/24 14:19,2.4,11,2.5,14,6.8,10
2012/1/24 14:20,2.5,11,2.5,14,5.1,8
2012/1/24 14:21,2.8,11,2.8,11,9,10
2012/1/24 14:22,3.2,11,3.2,11,8.7,10
2012/1/24 14:23,3.6,10,3.6,10,9.9,10
2012/1/24 14:24,3.8,10,3.8,10,8.6,8
2012/1/24 14:25,3.8,11,3.8,10,3.8,11
2012/1/24 14:26,3.8,11,3.8,10,5.8,12
2012/1/24 14:27,3.7,11,3.8,10,3.5,12
2012/1/24 14:28,3.7,11,3.7,10,6.9,12
2012/1/24 14:29,3.5,11,3.6,10,3.7,11
2012/1/24 14:30,3.7,11,3.7,10,6.8,12
2012/1/24 14:31,3.5,12,3.7,10,6,11
2012/1/24 14:32,3.4,12,3.5,10,6,12
2012/1/24 14:33,3.1,12,3.3,10,6.2,9
2012/1/24 14:34,3.1,12,3.1,10,6.3,10
2012/1/24 14:35,3.3,12,3.3,11,8.1,9
2012/1/24 14:36,3.5,11,3.5,11,6.8,9
2012/1/24 14:37,3.7,11,3.7,11,5.7,11
2012/1/24 14:38,3.6,11,3.8,11,4.9,10
2012/1/24 14:39,3.8,11,3.8,11,6.1,12
2012/1/24 14:40,3.8,11,3.9,11,5.8,13
2012/1/24 14:41,3.8,11,3.8,11,5.8,12
2012/1/24 14:42,3.8,11,3.9,11,5.5,13
2012/1/24 14:43,3.8,11,3.9,11,7.7,11
2012/1/24 14:44,3.7,12,3.9,11,3.9,14
2012/1/24 14:45,3.7,12,3.8,11,5,14
2012/1/24 14:46,3.5,12,3.6,11,4.3,14
2012/1/24 14:47,3.4,13,3.5,11,6,14
2012/1/24 14:48,3.5,13,3.5,11,6.9,15
2012/1/24 14:49,3.4,13,3.6,11,6.5,16
2012/1/24 14:50,3.2,13,3.3,11,5.6,12
2012/1/24 14:51,3.1,13,3.2,11,5.7,13
2012/1/24 14:52,3.2,13,3.2,11,7.5,12